• In Portugal
  • List of Countries
  • For 7 days
  • Water Temperature
  • Satellite Maps
  • Weather Map
  • Weather Widgets
  • user-avatar
    Login

    Hourly Weather Banfora

    Today, 20 September, Wednesday

    Time Temperature Precipitation Wind Pressure Humidity
    00:00 +28°C° 0 mm 1 mps 733 mmHg 76%
    01:00 +27°C° 0.3 mm 1 mps 732 mmHg 80%
    02:00 +27°C° 0.3 mm 1 mps 732 mmHg 84%
    03:00 +26°C° 0.3 mm 2 mps 731 mmHg 87%
    04:00 +26°C° 0.1 mm 2 mps 732 mmHg 89%
    05:00 +26°C° 0.1 mm 2 mps 732 mmHg 91%
    06:00 +25°C° 0.1 mm 2 mps 732 mmHg 93%
    07:00 +27°C° 0.1 mm 2 mps 733 mmHg 88%
    08:00 +28°C° 0.1 mm 2 mps 733 mmHg 83%
    09:00 +30°C° 0.1 mm 3 mps 734 mmHg 78%
    10:00 +31°C° 0.4 mm 3 mps 734 mmHg 71%
    11:00 +34°C° 0.4 mm 3 mps 734 mmHg 65%
    12:00 +35°C° 0.4 mm 3 mps 733 mmHg 59%
    13:00 +35°C° 1 mm 2 mps 733 mmHg 61%
    14:00 +34°C° 1 mm 2 mps 732 mmHg 62%
    15:00 +34°C° 1 mm 2 mps 732 mmHg 64%
    16:00 +32°C° 0.4 mm 2 mps 732 mmHg 69%
    17:00 +31°C° 0.4 mm 1 mps 732 mmHg 75%
    18:00 +30°C° 0.4 mm 1 mps 732 mmHg 80%
    19:00 +29°C° 0.1 mm 1 mps 732 mmHg 82%
    20:00 +28°C° 0.1 mm 1 mps 733 mmHg 84%
    21:00 +28°C° 0.1 mm 1 mps 733 mmHg 86%
    22:00 +27°C° 0.3 mm 2 mps 733 mmHg 88%
    23:00 +27°C° 0.3 mm 2 mps 733 mmHg 90%

    Tomorrow, 21 September, Thursday

    Time Temperature Precipitation Wind Pressure Humidity
    00:00 +26°C° 0.3 mm 2 mps 734 mmHg 92%
    01:00 +26°C° 1.3 mm 2 mps 733 mmHg 93%
    02:00 +26°C° 1.3 mm 2 mps 733 mmHg 94%
    03:00 +25°C° 1.3 mm 2 mps 733 mmHg 95%
    04:00 +25°C° 0.4 mm 2 mps 733 mmHg 94%
    05:00 +25°C° 0.4 mm 2 mps 733 mmHg 94%
    06:00 +25°C° 0.4 mm 2 mps 733 mmHg 94%
    07:00 +26°C° 0 mm 2 mps 734 mmHg 92%
    08:00 +26°C° 0 mm 3 mps 734 mmHg 90%
    09:00 +27°C° 0 mm 3 mps 734 mmHg 88%
    10:00 +29°C° 0 mm 3 mps 734 mmHg 80%
    11:00 +30°C° 0 mm 3 mps 734 mmHg 72%
    12:00 +33°C° 0 mm 3 mps 734 mmHg 64%
    13:00 +34°C° 0 mm 3 mps 733 mmHg 62%
    14:00 +34°C° 0 mm 2 mps 732 mmHg 60%
    15:00 +35°C° 0 mm 2 mps 732 mmHg 57%
    16:00 +32°C° 0 mm 2 mps 731 mmHg 62%
    17:00 +31°C° 0 mm 2 mps 731 mmHg 67%
    18:00 +30°C° 0 mm 1 mps 731 mmHg 71%
    19:00 +29°C° 0 mm 1 mps 732 mmHg 74%
    20:00 +29°C° 0 mm 1 mps 732 mmHg 76%
    21:00 +28°C° 0 mm 1 mps 733 mmHg 79%
    22:00 +27°C° 0.6 mm 1 mps 733 mmHg 82%
    23:00 +27°C° 0.6 mm 1 mps 733 mmHg 86%

    Day after tomorrow, 22 September, Friday

    Time Temperature Precipitation Wind Pressure Humidity
    00:00 +26°C° 0.6 mm 2 mps 733 mmHg 90%
    01:00 +26°C° 0.5 mm 2 mps 732 mmHg 91%
    02:00 +26°C° 0.5 mm 2 mps 732 mmHg 93%
    03:00 +25°C° 0.5 mm 2 mps 732 mmHg 94%
    04:00 +25°C° 0.8 mm 2 mps 732 mmHg 94%
    05:00 +25°C° 0.8 mm 2 mps 732 mmHg 94%
    06:00 +25°C° 0.8 mm 2 mps 733 mmHg 94%
    07:00 +26°C° 0.5 mm 2 mps 733 mmHg 91%
    08:00 +26°C° 0.5 mm 2 mps 734 mmHg 89%
    09:00 +27°C° 0.5 mm 2 mps 734 mmHg 86%
    10:00 +28°C° 1.3 mm 2 mps 734 mmHg 83%
    11:00 +28°C° 1.3 mm 1 mps 734 mmHg 80%
    12:00 +29°C° 1.3 mm 1 mps 734 mmHg 77%
    13:00 +29°C° 0.2 mm 1 mps 733 mmHg 74%
    14:00 +30°C° 0.2 mm 1 mps 732 mmHg 71%
    15:00 +30°C° 0.2 mm 1 mps 732 mmHg 68%
    16:00 +29°C° 0.9 mm 1 mps 732 mmHg 73%
    17:00 +28°C° 0.9 mm 1 mps 732 mmHg 78%
    18:00 +28°C° 0.9 mm 1 mps 732 mmHg 84%
    19:00 +27°C° 0.8 mm 1 mps 733 mmHg 86%
    20:00 +26°C° 0.8 mm 2 mps 734 mmHg 89%
    21:00 +25°C° 0.8 mm 2 mps 734 mmHg 92%
    22:00 +25°C° 0.1 mm 2 mps 734 mmHg 93%
    23:00 +25°C° 0.1 mm 2 mps 734 mmHg 94%

    23 September, Saturday

    Time Temperature Precipitation Wind Pressure Humidity
    00:00 +24°C° 0.1 mm 2 mps 734 mmHg 95%
    01:00 +24°C° 0.2 mm 2 mps 734 mmHg 96%
    02:00 +24°C° 0.2 mm 2 mps 733 mmHg 96%
    03:00 +24°C° 0.2 mm 2 mps 733 mmHg 97%
    04:00 +24°C° 0.2 mm 2 mps 733 mmHg 97%
    05:00 +24°C° 0.2 mm 1 mps 734 mmHg 97%
    06:00 +24°C° 0.2 mm 1 mps 734 mmHg 97%
    07:00 +25°C° 0 mm 2 mps 734 mmHg 93%
    08:00 +26°C° 0 mm 2 mps 735 mmHg 88%
    09:00 +27°C° 0 mm 3 mps 736 mmHg 84%
    10:00 +29°C° 0 mm 3 mps 735 mmHg 77%
    11:00 +30°C° 0 mm 2 mps 735 mmHg 70%
    12:00 +32°C° 0 mm 2 mps 735 mmHg 64%
    13:00 +32°C° 0.1 mm 2 mps 734 mmHg 63%
    14:00 +32°C° 0.1 mm 2 mps 733 mmHg 63%
    15:00 +32°C° 0.1 mm 2 mps 733 mmHg 62%
    16:00 +31°C° 0.2 mm 1 mps 733 mmHg 66%
    17:00 +30°C° 0.2 mm 1 mps 733 mmHg 71%
    18:00 +29°C° 0.2 mm 1 mps 733 mmHg 76%
    19:00 +29°C° 0 mm 1 mps 734 mmHg 78%
    20:00 +28°C° 0 mm 1 mps 735 mmHg 81%
    21:00 +27°C° 0 mm 1 mps 735 mmHg 83%
    22:00 +27°C° 0.1 mm 1 mps 735 mmHg 85%
    23:00 +27°C° 0.1 mm 1 mps 735 mmHg 87%

    24 September, Sunday

    Time Temperature Precipitation Wind Pressure Humidity
    00:00 +26°C° 0.1 mm 1 mps 735 mmHg 88%
    01:00 +26°C° 0.3 mm 1 mps 735 mmHg 90%
    02:00 +26°C° 0.3 mm 1 mps 734 mmHg 92%
    03:00 +25°C° 0.3 mm 1 mps 734 mmHg 94%
    04:00 +25°C° 0 mm 1 mps 734 mmHg 95%
    05:00 +25°C° 0 mm 1 mps 734 mmHg 96%
    06:00 +25°C° 0 mm 1 mps 734 mmHg 97%
    07:00 +26°C° 0 mm 2 mps 735 mmHg 91%
    08:00 +28°C° 0 mm 2 mps 735 mmHg 84%
    09:00 +29°C° 0 mm 3 mps 735 mmHg 78%
    10:00 +31°C° 0 mm 3 mps 734 mmHg 71%
    11:00 +32°C° 0 mm 2 mps 734 mmHg 64%
    12:00 +35°C° 0 mm 2 mps 734 mmHg 56%
    13:00 +35°C° 0 mm 2 mps 733 mmHg 55%
    14:00 +35°C° 0 mm 1 mps 733 mmHg 53%
    15:00 +35°C° 0 mm 1 mps 732 mmHg 52%
    16:00 +33°C° 0.4 mm 1 mps 732 mmHg 58%
    17:00 +32°C° 0.4 mm 1 mps 732 mmHg 65%
    18:00 +30°C° 0.4 mm 2 mps 732 mmHg 71%
    19:00 +29°C° 0.2 mm 2 mps 732 mmHg 75%
    20:00 +28°C° 0.2 mm 2 mps 733 mmHg 79%
    21:00 +27°C° 0.2 mm 2 mps 733 mmHg 82%
    22:00 +27°C° 0.3 mm 1 mps 733 mmHg 84%
    23:00 +27°C° 0.3 mm 1 mps 733 mmHg 85%

    25 September, Monday

    Time Temperature Precipitation Wind Pressure Humidity
    00:00 +26°C° 0.3 mm 1 mps 733 mmHg 86%
    01:00 +26°C° 0.8 mm 1 mps 733 mmHg 88%
    02:00 +26°C° 0.8 mm 1 mps 733 mmHg 89%
    03:00 +25°C° 0.8 mm 1 mps 733 mmHg 90%
    04:00 +25°C° 0 mm 1 mps 733 mmHg 90%
    05:00 +25°C° 0 mm 1 mps 733 mmHg 90%
    06:00 +25°C° 0 mm 1 mps 733 mmHg 90%
    07:00 +27°C° 0 mm 1 mps 733 mmHg 87%
    08:00 +28°C° 0 mm 2 mps 734 mmHg 83%
    09:00 +29°C° 0 mm 2 mps 734 mmHg 79%
    10:00 +31°C° 0.2 mm 2 mps 733 mmHg 71%
    11:00 +34°C° 0.2 mm 2 mps 733 mmHg 62%
    12:00 +36°C° 0.2 mm 2 mps 733 mmHg 54%
    13:00 +35°C° 0.6 mm 2 mps 732 mmHg 55%
    14:00 +35°C° 0.6 mm 2 mps 732 mmHg 55%
    15:00 +35°C° 0.6 mm 2 mps 731 mmHg 55%
    16:00 +33°C° 0.5 mm 1 mps 731 mmHg 61%
    17:00 +31°C° 0.5 mm 1 mps 731 mmHg 67%
    18:00 +30°C° 0.5 mm 1 mps 731 mmHg 73%
    19:00 +29°C° 1.3 mm 1 mps 731 mmHg 76%
    20:00 +28°C° 1.3 mm 1 mps 732 mmHg 80%
    21:00 +27°C° 1.3 mm 1 mps 732 mmHg 83%
    22:00 +27°C° 0.8 mm 1 mps 732 mmHg 85%
    23:00 +25°C° 0.8 mm 0 mps 733 mmHg 86%
    Show more